Powrót do katalogu

FENGYUN 1C DEB

AktywnyPO
NORAD 30629·DEBRIS·🇨🇳 China

Wystrzelony May 10, 1999 z Taiyuan Satellite Launch Center

Loading…

Następne Przeloty (najbliższe 24 godziny)

TLE

ŚwieżeSource: Space-Track

Epoka: Sep 14, 2026, 14:38 UTC

1 30629U 99025ANL 26257.60988633  .00008962  00000-0  15984-2 0  9994
2 30629  99.2564  32.1608 0006603  81.8668 340.6955 14.67257549 19258

Śledź FENGYUN 1C DEB w czasie rzeczywistym z AllMySat

Download on the App Store